| time (UTC) | temp F | wind direction | speed MPH | gust MPH | rain 1hr in | rain 24hr in | rain mn in | humidity % | barometer mb |
| 20260902023905 | 46 | 90 | 0.0 | 0.0 | 0.00 | 0.00 | 0.00 | 81 | 1008.7 |
| 20260902023305 | 46 | 90 | 0.0 | 0.0 | 0.00 | 0.00 | 0.00 | 81 | 1008.7 |
| 20260902023006 | 46 | 337 | 0.0 | 0.0 | 0.00 | 0.00 | 0.00 | 81 | 1008.7 |
| 20260902022705 | 46 | 337 | 0.0 | 0.0 | 0.00 | 0.00 | 0.00 | 81 | 1008.7 |
| 20260902022406 | 46 | 112 | 0.0 | 0.0 | 0.00 | 0.00 | 0.00 | 81 | 1008.7 |
| 20260902021806 | 47 | 337 | 0.0 | 0.0 | 0.00 | 0.00 | 0.00 | 81 | 1008.7 |
| 20260902021506 | 47 | 112 | 0.0 | 0.0 | 0.00 | 0.00 | 0.00 | 81 | 1008.9 |
| 20260902021206 | 47 | 112 | 0.0 | 0.0 | 0.00 | 0.00 | 0.00 | 81 | 1008.7 |
| 20260902020906 | 47 | 112 | 0.0 | 0.0 | 0.00 | 0.00 | 0.00 | 81 | 1008.7 |
| 20260902020305 | 47 | 135 | 0.0 | 0.0 | 0.00 | 0.00 | 0.00 | 81 | 1008.7 |
| 20260902020005 | 47 | 90 | 0.0 | 0.0 | 0.00 | 0.00 | 0.00 | 80 | 1008.7 |
| 20260902015706 | 47 | 90 | 0.0 | 0.0 | 0.00 | 0.00 | 0.00 | 80 | 1008.7 |
| 20260902015405 | 47 | 90 | 0.0 | 0.0 | 0.00 | 0.00 | 0.00 | 80 | 1008.7 |
| 20260902015105 | 47 | 90 | 0.0 | 0.0 | 0.00 | 0.00 | 0.00 | 80 | 1008.7 |
| 20260902014506 | 47 | 90 | 0.0 | 0.0 | 0.00 | 0.00 | 0.00 | 80 | 1008.7 |
| 20260902014206 | 47 | 337 | 0.0 | 0.0 | 0.00 | 0.00 | 0.00 | 80 | 1008.7 |
| 20260902013905 | 47 | 90 | 0.0 | 0.0 | 0.00 | 0.00 | 0.00 | 80 | 1008.7 |
| 20260902013606 | 47 | 90 | 0.0 | 0.0 | 0.00 | 0.00 | 0.00 | 81 | 1008.7 |
| 20260902013305 | 47 | 90 | 0.0 | 0.0 | 0.00 | 0.00 | 0.00 | 80 | 1008.7 |
| 20260902012706 | 47 | 90 | 0.0 | 0.0 | 0.00 | 0.00 | 0.00 | 80 | 1008.7 |
| 20260902012405 | 48 | 90 | 0.0 | 0.0 | 0.00 | 0.00 | 0.00 | 80 | 1008.7 |
| 20260902012105 | 47 | 90 | 0.0 | 0.0 | 0.00 | 0.00 | 0.00 | 80 | 1008.7 |
| 20260902011806 | 48 | 90 | 0.0 | 0.0 | 0.00 | 0.00 | 0.00 | 80 | 1008.9 |
| 20260902011506 | 48 | 112 | 0.0 | 0.0 | 0.00 | 0.00 | 0.00 | 81 | 1008.7 |
| 20260902010906 | 48 | 112 | 0.0 | 0.0 | 0.00 | 0.00 | 0.00 | 80 | 1009.2 |
| 20260902010606 | 48 | 22 | 0.0 | 0.0 | 0.00 | 0.00 | 0.00 | 80 | 1009.2 |
| 20260902010306 | 48 | 22 | 0.0 | 0.0 | 0.00 | 0.00 | 0.00 | 79 | 1009.2 |
| 20260902010005 | 48 | 22 | 0.0 | 0.0 | 0.00 | 0.00 | 0.00 | 79 | 1009.2 |
| 20260902005405 | 48 | 22 | 0.0 | 0.0 | 0.00 | 0.00 | 0.00 | 79 | 1008.9 |
| 20260902005105 | 48 | 22 | 0.0 | 0.0 | 0.00 | 0.00 | 0.00 | 79 | 1008.9 |
| 20260902004805 | 48 | 22 | 0.0 | 0.0 | 0.00 | 0.00 | 0.00 | 79 | 1008.9 |
| 20260902004505 | 48 | 337 | 0.0 | 0.0 | 0.00 | 0.00 | 0.00 | 79 | 1008.9 |
| 20260902003906 | 48 | 22 | 0.0 | 0.0 | 0.00 | 0.00 | 0.00 | 79 | 1009.2 |
| 20260902003606 | 48 | 337 | 0.0 | 0.0 | 0.00 | 0.00 | 0.00 | 79 | 1008.9 |
| 20260902003305 | 48 | 22 | 0.0 | 0.0 | 0.00 | 0.00 | 0.00 | 79 | 1008.9 |
| 20260902002706 | 48 | 22 | 0.0 | 0.0 | 0.00 | 0.00 | 0.00 | 79 | 1009.2 |
| 20260902002405 | 48 | 22 | 0.0 | 0.0 | 0.00 | 0.00 | 0.00 | 79 | 1009.2 |
| 20260902002105 | 48 | 337 | 0.0 | 0.0 | 0.00 | 0.00 | 0.00 | 79 | 1009.2 |
| 20260902001805 | 49 | 22 | 0.0 | 0.0 | 0.00 | 0.00 | 0.00 | 80 | 1009.2 |
| 20260902001506 | 49 | 22 | 0.0 | 0.0 | 0.00 | 0.00 | 0.00 | 80 | 1009.2 |
| 20260902000905 | 49 | 22 | 0.0 | 0.0 | 0.00 | 0.00 | 0.00 | 79 | 1009.2 |
| 20260902000606 | 49 | 22 | 0.0 | 0.0 | 0.00 | 0.00 | 0.00 | 79 | 1009.2 |
| 20260902000306 | 49 | 337 | 0.0 | 0.0 | 0.00 | 0.00 | 0.00 | 80 | 1009.2 |
| 20260902000006 | 49 | 22 | 0.0 | 0.0 | 0.00 | 0.00 | 0.00 | 80 | 1009.2 |
| 20260901235406 | 49 | 22 | 0.0 | 0.0 | 0.00 | 0.00 | 0.00 | 79 | 1009.2 |
| 20260901235106 | 49 | 22 | 0.0 | 0.0 | 0.00 | 0.00 | 0.00 | 80 | 1009.2 |
| 20260901234805 | 49 | 22 | 0.0 | 0.0 | 0.00 | 0.00 | 0.00 | 79 | 1009.2 |
| 20260901234505 | 49 | 22 | 0.0 | 0.0 | 0.00 | 0.00 | 0.00 | 79 | 1009.2 |
| 20260901234206 | 49 | 22 | 0.0 | 0.0 | 0.00 | 0.00 | 0.00 | 80 | 1009.2 |
| 20260901233906 | 50 | 22 | 0.0 | 0.0 | 0.00 | 0.00 | 0.00 | 79 | 1009.2 |
| 20260901233605 | 50 | 337 | 0.0 | 0.0 | 0.00 | 0.00 | 0.00 | 80 | 1009.2 |
| 20260901233305 | 50 | 22 | 0.0 | 0.0 | 0.00 | 0.00 | 0.00 | 80 | 1009.2 |
| 20260901233006 | 50 | 22 | 0.0 | 0.0 | 0.00 | 0.00 | 0.00 | 79 | 1009.2 |
| 20260901232705 | 50 | 22 | 0.0 | 0.0 | 0.00 | 0.00 | 0.00 | 79 | 1009.2 |
| 20260901232106 | 50 | 22 | 0.0 | 0.0 | 0.00 | 0.00 | 0.00 | 79 | 1009.2 |
| 20260901231806 | 50 | 22 | 0.0 | 0.0 | 0.00 | 0.00 | 0.00 | 80 | 1009.2 |
| 20260901231506 | 51 | 22 | 0.0 | 0.0 | 0.00 | 0.00 | 0.00 | 80 | 1009.2 |
| 20260901231205 | 51 | 22 | 0.0 | 0.0 | 0.00 | 0.00 | 0.00 | 79 | 1009.2 |
| 20260901230906 | 50 | 22 | 0.0 | 0.0 | 0.00 | 0.00 | 0.00 | 80 | 1008.9 |
| 20260901230606 | 51 | 22 | 0.0 | 0.0 | 0.00 | 0.00 | 0.00 | 79 | 1009.2 |
| 20260901230306 | 51 | 22 | 0.0 | 0.0 | 0.00 | 0.00 | 0.00 | 80 | 1009.2 |
| 20260901230009 | 51 | 22 | 0.0 | 0.0 | 0.00 | 0.00 | 0.00 | 79 | 1009.2 |
| 20260901225706 | 51 | 22 | 0.0 | 0.0 | 0.00 | 0.00 | 0.00 | 79 | 1009.2 |
| 20260901225106 | 51 | 22 | 0.0 | 0.0 | 0.00 | 0.00 | 0.00 | 80 | 1008.9 |
| 20260901224805 | 51 | 90 | 0.0 | 0.0 | 0.00 | 0.00 | 0.00 | 80 | 1009.2 |
| 20260901224505 | 51 | 90 | 0.0 | 0.0 | 0.00 | 0.00 | 0.00 | 79 | 1009.2 |
| 20260901224206 | 51 | 90 | 0.0 | 0.0 | 0.00 | 0.00 | 0.00 | 80 | 1009.2 |
| 20260901223606 | 51 | 90 | 0.0 | 0.0 | 0.00 | 0.00 | 0.00 | 79 | 1009.2 |
| 20260901223306 | 51 | 90 | 0.0 | 0.0 | 0.00 | 0.00 | 0.00 | 79 | 1009.2 |
| 20260901223006 | 51 | 90 | 0.0 | 0.0 | 0.00 | 0.00 | 0.00 | 79 | 1009.2 |
| 20260901222705 | 51 | 90 | 0.0 | 0.0 | 0.00 | 0.00 | 0.00 | 79 | 1009.2 |
| 20260901222106 | 51 | 112 | 0.0 | 0.0 | 0.00 | 0.00 | 0.00 | 79 | 1009.2 |
| 20260901221806 | 51 | 112 | 0.0 | 0.0 | 0.00 | 0.00 | 0.00 | 79 | 1009.2 |
| 20260901221506 | 52 | 202 | 0.0 | 0.0 | 0.00 | 0.00 | 0.00 | 79 | 1009.2 |
| 20260901221205 | 52 | 180 | 0.0 | 0.0 | 0.00 | 0.00 | 0.00 | 79 | 1008.9 |
| 20260901220906 | 52 | 180 | 0.0 | 0.0 | 0.00 | 0.00 | 0.00 | 79 | 1008.9 |
| 20260901220608 | 52 | 202 | 0.0 | 0.0 | 0.00 | 0.00 | 0.00 | 79 | 1009.2 |
| 20260901220305 | 52 | 202 | 1.0 | 1.0 | 0.00 | 0.00 | 0.00 | 79 | 1008.9 |
| 20260901220007 | 52 | 0 | 0.0 | 0.0 | 0.00 | 0.00 | 0.00 | 79 | 1009.2 |
| 20260901215706 | 52 | 157 | 1.0 | 1.0 | 0.00 | 0.00 | 0.02 | 79 | 1008.9 |
| 20260901215406 | 52 | 0 | 0.0 | 0.0 | 0.00 | 0.00 | 0.02 | 79 | 1008.9 |
| 20260901214806 | 52 | 135 | 0.0 | 0.0 | 0.00 | 0.00 | 0.02 | 79 | 1009.2 |
| 20260901214506 | 52 | 112 | 0.0 | 0.0 | 0.00 | 0.00 | 0.02 | 79 | 1009.2 |
| 20260901214205 | 52 | 337 | 0.0 | 0.0 | 0.00 | 0.00 | 0.02 | 79 | 1008.9 |
| 20260901213907 | 52 | 202 | 1.0 | 1.0 | 0.00 | 0.00 | 0.02 | 79 | 1009.2 |
| 20260901213306 | 53 | 202 | 2.0 | 2.0 | 0.00 | 0.00 | 0.02 | 79 | 1009.2 |
| 20260901213006 | 53 | 180 | 1.0 | 1.0 | 0.00 | 0.00 | 0.02 | 79 | 1009.2 |
| 20260901212705 | 53 | 202 | 0.0 | 0.0 | 0.00 | 0.00 | 0.02 | 79 | 1008.9 |
| 20260901212407 | 53 | 202 | 0.0 | 0.0 | 0.00 | 0.00 | 0.02 | 78 | 1008.9 |
| 20260901212105 | 53 | 337 | 0.0 | 0.0 | 0.00 | 0.00 | 0.02 | 78 | 1009.2 |
| 20260901211805 | 53 | 270 | 0.0 | 0.0 | 0.00 | 0.00 | 0.02 | 78 | 1008.9 |
| 20260901211505 | 53 | 202 | 0.0 | 0.0 | 0.00 | 0.00 | 0.02 | 78 | 1009.2 |
| 20260901211205 | 52 | 337 | 0.0 | 0.0 | 0.00 | 0.00 | 0.02 | 78 | 1008.9 |
| 20260901210905 | 52 | 90 | 1.0 | 1.0 | 0.00 | 0.00 | 0.02 | 77 | 1008.9 |
| 20260901210305 | 53 | 45 | 0.0 | 0.0 | 0.00 | 0.00 | 0.02 | 77 | 1008.9 |
| 20260901210007 | 53 | 45 | 0.0 | 0.0 | 0.00 | 0.00 | 0.02 | 77 | 1008.7 |
| 20260901205705 | 53 | 0 | 0.0 | 0.0 | 0.00 | 0.00 | 0.02 | 77 | 1008.9 |
| 20260901205406 | 53 | 0 | 0.0 | 0.0 | 0.00 | 0.00 | 0.02 | 77 | 1008.9 |
| 20260901205108 | 53 | 22 | 0.0 | 0.0 | 0.00 | 0.00 | 0.02 | 76 | 1008.9 |
| 20260901204806 | 53 | 0 | 0.0 | 0.0 | 0.00 | 0.00 | 0.02 | 76 | 1008.7 |
| 20260901204505 | 53 | 22 | 0.0 | 0.0 | 0.00 | 0.00 | 0.02 | 76 | 1008.7 |
| 20260901204206 | 53 | 22 | 0.0 | 0.0 | 0.00 | 0.00 | 0.02 | 76 | 1008.7 |
| 20260901203905 | 53 | 22 | 0.0 | 0.0 | 0.00 | 0.00 | 0.02 | 76 | 1008.7 |
| 20260901203608 | 53 | 337 | 0.0 | 0.0 | 0.00 | 0.00 | 0.02 | 76 | 1008.7 |
| 20260901203306 | 54 | 22 | 0.0 | 0.0 | 0.00 | 0.00 | 0.02 | 76 | 1008.7 |
| 20260901203006 | 54 | 22 | 0.0 | 0.0 | 0.00 | 0.00 | 0.02 | 76 | 1008.7 |
| 20260901202706 | 54 | 22 | 0.0 | 0.0 | 0.00 | 0.00 | 0.02 | 76 | 1008.7 |
| 20260901202106 | 54 | 337 | 0.0 | 0.0 | 0.00 | 0.00 | 0.02 | 76 | 1008.7 |
| 20260901201806 | 54 | 22 | 0.0 | 0.0 | 0.00 | 0.00 | 0.02 | 76 | 1008.7 |
| 20260901201506 | 54 | 22 | 0.0 | 0.0 | 0.00 | 0.00 | 0.02 | 76 | 1008.5 |
| 20260901201205 | 54 | 337 | 0.0 | 0.0 | 0.00 | 0.00 | 0.02 | 75 | 1008.5 |
| 20260901200906 | 54 | 22 | 0.0 | 0.0 | 0.00 | 0.00 | 0.02 | 75 | 1008.7 |
| 20260901200305 | 55 | 22 | 0.0 | 0.0 | 0.00 | 0.00 | 0.02 | 75 | 1008.7 |
| 20260901200006 | 54 | 22 | 0.0 | 0.0 | 0.00 | 0.00 | 0.02 | 75 | 1008.7 |
| 20260901195706 | 55 | 22 | 0.0 | 0.0 | 0.00 | 0.00 | 0.02 | 75 | 1008.7 |
| 20260901195405 | 55 | 22 | 0.0 | 0.0 | 0.00 | 0.00 | 0.02 | 75 | 1008.5 |
| 20260901195106 | 55 | 22 | 0.0 | 0.0 | 0.00 | 0.00 | 0.02 | 75 | 1008.7 |
| 20260901194806 | 56 | 22 | 0.0 | 0.0 | 0.00 | 0.00 | 0.02 | 76 | 1008.5 |
| 20260901194506 | 56 | 337 | 0.0 | 0.0 | 0.00 | 0.00 | 0.02 | 75 | 1008.5 |
| 20260901194205 | 56 | 22 | 0.0 | 0.0 | 0.00 | 0.00 | 0.02 | 75 | 1008.5 |
| 20260901193906 | 56 | 22 | 0.0 | 0.0 | 0.00 | 0.00 | 0.02 | 75 | 1008.5 |
| 20260901193605 | 56 | 22 | 0.0 | 0.0 | 0.00 | 0.00 | 0.02 | 75 | 1008.5 |
| 20260901193305 | 56 | 22 | 0.0 | 0.0 | 0.00 | 0.00 | 0.02 | 75 | 1008.5 |
| 20260901193006 | 56 | 22 | 0.0 | 0.0 | 0.00 | 0.00 | 0.02 | 75 | 1008.5 |
| 20260901192705 | 56 | 337 | 0.0 | 0.0 | 0.00 | 0.00 | 0.02 | 75 | 1008.5 |
| 20260901192406 | 57 | 337 | 0.0 | 0.0 | 0.00 | 0.00 | 0.02 | 75 | 1008.5 |
| 20260901192106 | 57 | 337 | 0.0 | 0.0 | 0.00 | 0.00 | 0.02 | 75 | 1008.5 |
| 20260901191809 | 57 | 337 | 0.0 | 0.0 | 0.00 | 0.00 | 0.02 | 75 | 1008.5 |
| 20260901191506 | 57 | 22 | 0.0 | 0.0 | 0.00 | 0.00 | 0.02 | 75 | 1008.5 |
| 20260901191206 | 57 | 22 | 0.0 | 0.0 | 0.00 | 0.00 | 0.02 | 76 | 1008.2 |
| 20260901190906 | 57 | 22 | 0.0 | 0.0 | 0.00 | 0.00 | 0.02 | 75 | 1008.2 |
| 20260901190606 | 57 | 337 | 0.0 | 0.0 | 0.00 | 0.00 | 0.02 | 74 | 1008.2 |
| 20260901190306 | 57 | 22 | 0.0 | 0.0 | 0.00 | 0.00 | 0.02 | 74 | 1008.2 |
| 20260901190006 | 58 | 22 | 0.0 | 0.0 | 0.00 | 0.00 | 0.02 | 74 | 1008.2 |
| 20260901185706 | 58 | 22 | 0.0 | 0.0 | 0.00 | 0.00 | 0.02 | 75 | 1008.2 |
| 20260901185407 | 59 | 337 | 0.0 | 0.0 | 0.00 | 0.00 | 0.02 | 75 | 1008.2 |
| 20260901185105 | 59 | 22 | 0.0 | 0.0 | 0.00 | 0.00 | 0.02 | 75 | 1008.2 |
| 20260901184805 | 59 | 22 | 0.0 | 0.0 | 0.00 | 0.00 | 0.02 | 75 | 1008.2 |
| 20260901184509 | 59 | 22 | 0.0 | 0.0 | 0.00 | 0.00 | 0.02 | 75 | 1008.2 |
| 20260901184206 | 59 | 22 | 0.0 | 0.0 | 0.00 | 0.00 | 0.02 | 75 | 1008.2 |
| 20260901183906 | 59 | 67 | 0.0 | 0.0 | 0.00 | 0.00 | 0.02 | 75 | 1008.2 |
| 20260901183606 | 60 | 90 | 0.0 | 0.0 | 0.00 | 0.00 | 0.02 | 75 | 1008.2 |
| 20260901183306 | 60 | 90 | 0.0 | 0.0 | 0.00 | 0.00 | 0.02 | 75 | 1008.2 |
| 20260901183006 | 61 | 67 | 0.0 | 0.0 | 0.00 | 0.00 | 0.02 | 75 | 1008.2 |
| 20260901182706 | 61 | 337 | 0.0 | 0.0 | 0.00 | 0.00 | 0.02 | 75 | 1008.2 |
| 20260901182405 | 61 | 67 | 0.0 | 0.0 | 0.00 | 0.00 | 0.02 | 75 | 1008.2 |
| 20260901182105 | 61 | 337 | 0.0 | 0.0 | 0.00 | 0.00 | 0.02 | 75 | 1008.2 |
| 20260901181806 | 61 | 315 | 0.0 | 0.0 | 0.00 | 0.00 | 0.02 | 74 | 1008.2 |
| 20260901181508 | 61 | 337 | 0.0 | 0.0 | 0.00 | 0.00 | 0.02 | 74 | 1008.0 |
| 20260901181206 | 61 | 90 | 0.0 | 0.0 | 0.00 | 0.00 | 0.02 | 74 | 1008.0 |
| 20260901180906 | 62 | 90 | 0.0 | 0.0 | 0.00 | 0.00 | 0.02 | 75 | 1008.0 |
| 20260901180606 | 62 | 90 | 0.0 | 0.0 | 0.00 | 0.00 | 0.02 | 74 | 1008.0 |
| 20260901180306 | 62 | 337 | 0.0 | 0.0 | 0.00 | 0.00 | 0.02 | 75 | 1008.0 |
| 20260901180005 | 62 | 90 | 0.0 | 0.0 | 0.00 | 0.00 | 0.02 | 75 | 1007.7 |
| 20260901175405 | 63 | 337 | 0.0 | 0.0 | 0.00 | 0.00 | 0.02 | 74 | 1007.7 |
| 20260901175106 | 63 | 90 | 0.0 | 0.0 | 0.00 | 0.00 | 0.02 | 74 | 1007.5 |
| 20260901174805 | 63 | 337 | 0.0 | 0.0 | 0.00 | 0.00 | 0.02 | 74 | 1007.7 |
| 20260901174507 | 63 | 90 | 0.0 | 0.0 | 0.00 | 0.00 | 0.02 | 74 | 1007.7 |
| 20260901174206 | 64 | 90 | 0.0 | 0.0 | 0.00 | 0.00 | 0.02 | 74 | 1007.7 |
| 20260901173908 | 64 | 112 | 0.0 | 0.0 | 0.00 | 0.00 | 0.02 | 74 | 1007.7 |
| 20260901173606 | 64 | 112 | 0.0 | 0.0 | 0.00 | 0.00 | 0.02 | 74 | 1007.7 |
| 20260901173305 | 64 | 67 | 0.0 | 0.0 | 0.00 | 0.00 | 0.02 | 74 | 1007.7 |
| 20260901173005 | 64 | 22 | 0.0 | 0.0 | 0.00 | 0.00 | 0.02 | 74 | 1007.7 |
| 20260901172706 | 65 | 22 | 0.0 | 0.0 | 0.00 | 0.00 | 0.02 | 74 | 1007.5 |
| 20260901172408 | 65 | 22 | 0.0 | 0.0 | 0.00 | 0.00 | 0.02 | 74 | 1007.5 |
| 20260901172106 | 65 | 22 | 0.0 | 0.0 | 0.00 | 0.00 | 0.02 | 73 | 1007.5 |
| 20260901171806 | 65 | 22 | 0.0 | 0.0 | 0.00 | 0.00 | 0.02 | 72 | 1007.7 |
| 20260901171505 | 65 | 22 | 0.0 | 0.0 | 0.00 | 0.00 | 0.02 | 72 | 1007.7 |
| 20260901171208 | 66 | 337 | 0.0 | 0.0 | 0.00 | 0.00 | 0.02 | 72 | 1007.5 |
| 20260901170905 | 66 | 0 | 0.0 | 0.0 | 0.00 | 0.00 | 0.02 | 72 | 1007.7 |
| 20260901170605 | 66 | 337 | 0.0 | 0.0 | 0.00 | 0.00 | 0.02 | 72 | 1007.7 |
| 20260901170305 | 66 | 0 | 0.0 | 0.0 | 0.00 | 0.00 | 0.02 | 71 | 1007.7 |
| 20260901165706 | 68 | 225 | 0.0 | 0.0 | 0.00 | 0.00 | 0.02 | 71 | 1007.7 |
| 20260901165406 | 69 | 337 | 0.0 | 0.0 | 0.00 | 0.00 | 0.02 | 71 | 1007.5 |
| 20260901165106 | 69 | 337 | 0.0 | 0.0 | 0.00 | 0.00 | 0.02 | 71 | 1007.5 |
| 20260901164806 | 69 | 112 | 0.0 | 0.0 | 0.00 | 0.00 | 0.02 | 70 | 1007.5 |
| 20260901164205 | 69 | 337 | 0.0 | 0.0 | 0.00 | 0.00 | 0.02 | 70 | 1007.7 |
| 20260901163906 | 69 | 112 | 0.0 | 0.0 | 0.00 | 0.00 | 0.02 | 70 | 1007.7 |
| 20260901163605 | 69 | 112 | 0.0 | 0.0 | 0.00 | 0.00 | 0.02 | 71 | 1007.7 |
| 20260901163305 | 69 | 112 | 0.0 | 0.0 | 0.00 | 0.00 | 0.02 | 70 | 1007.7 |
| 20260901163006 | 69 | 135 | 0.0 | 0.0 | 0.00 | 0.00 | 0.02 | 70 | 1007.7 |
| 20260901162709 | 68 | 337 | 0.0 | 0.0 | 0.00 | 0.00 | 0.02 | 70 | 1007.7 |
| 20260901162406 | 69 | 337 | 0.0 | 0.0 | 0.00 | 0.00 | 0.02 | 70 | 1007.7 |
| 20260901162105 | 69 | 157 | 1.0 | 1.0 | 0.00 | 0.00 | 0.02 | 71 | 1007.7 |
| 20260901161806 | 69 | 135 | 0.0 | 0.0 | 0.00 | 0.00 | 0.02 | 72 | 1007.7 |
| 20260901161505 | 69 | 157 | 0.0 | 0.0 | 0.00 | 0.00 | 0.02 | 72 | 1007.7 |
| 20260901161205 | 68 | 337 | 0.0 | 0.0 | 0.00 | 0.00 | 0.02 | 71 | 1007.7 |
| 20260901160906 | 68 | 337 | 0.0 | 0.0 | 0.00 | 0.00 | 0.02 | 70 | 1007.7 |
| 20260901160606 | 68 | 90 | 1.0 | 1.0 | 0.00 | 0.00 | 0.02 | 71 | 1007.7 |
| 20260901160306 | 67 | 67 | 0.0 | 0.0 | 0.00 | 0.00 | 0.02 | 71 | 1007.7 |
| 20260901160006 | 68 | 22 | 0.0 | 0.0 | 0.00 | 0.00 | 0.02 | 71 | 1007.7 |
| 20260901155705 | 68 | 337 | 3.0 | 3.0 | 0.00 | 0.00 | 0.02 | 72 | 1007.7 |
| 20260901155105 | 65 | 0 | 3.0 | 4.0 | 0.00 | 0.00 | 0.02 | 72 | 1008.0 |
| 20260901154806 | 65 | 0 | 3.0 | 3.0 | 0.00 | 0.00 | 0.02 | 71 | 1007.7 |
| 20260901154506 | 66 | 45 | 0.0 | 0.0 | 0.00 | 0.00 | 0.02 | 70 | 1008.0 |
| 20260901154206 | 65 | 337 | 0.0 | 0.0 | 0.00 | 0.00 | 0.02 | 69 | 1007.7 |
| 20260901153908 | 65 | 45 | 0.0 | 0.0 | 0.00 | 0.00 | 0.02 | 69 | 1007.7 |
| 20260901153605 | 65 | 45 | 0.0 | 0.0 | 0.00 | 0.00 | 0.02 | 69 | 1007.7 |
| 20260901153306 | 65 | 337 | 0.0 | 0.0 | 0.00 | 0.00 | 0.02 | 69 | 1008.0 |
| 20260901153006 | 65 | 22 | 0.0 | 0.0 | 0.00 | 0.00 | 0.02 | 68 | 1008.0 |
| 20260901152405 | 64 | 22 | 1.0 | 1.0 | 0.00 | 0.00 | 0.02 | 67 | 1008.0 |
| 20260901152106 | 64 | 337 | 4.0 | 4.0 | 0.00 | 0.00 | 0.02 | 67 | 1008.2 |
| 20260901151806 | 64 | 0 | 5.0 | 5.0 | 0.00 | 0.00 | 0.02 | 66 | 1007.7 |
| 20260901151506 | 65 | 45 | 1.0 | 1.0 | 0.00 | 0.00 | 0.02 | 64 | 1008.0 |
| 20260901150906 | 66 | 337 | 2.0 | 2.0 | 0.00 | 0.00 | 0.00 | 60 | 1007.7 |
| 20260901150606 | 68 | 270 | 2.0 | 2.0 | 0.00 | 0.00 | 0.00 | 58 | 1008.0 |
| 20260901150307 | 68 | 337 | 1.0 | 1.0 | 0.00 | 0.00 | 0.00 | 58 | 1008.0 |
| 20260901150007 | 68 | 270 | 3.0 | 3.0 | 0.00 | 0.00 | 0.00 | 57 | 1007.7 |
| 20260901145406 | 68 | 225 | 2.0 | 2.0 | 0.00 | 0.00 | 0.00 | 57 | 1008.0 |
| 20260901145105 | 69 | 225 | 4.0 | 4.0 | 0.00 | 0.00 | 0.00 | 57 | 1008.0 |
| 20260901144806 | 68 | 225 | 4.0 | 4.0 | 0.00 | 0.00 | 0.00 | 56 | 1007.7 |
| 20260901144507 | 69 | 225 | 2.0 | 2.0 | 0.00 | 0.00 | 0.00 | 56 | 1007.7 |
| 20260901144206 | 69 | 225 | 3.0 | 3.0 | 0.00 | 0.00 | 0.00 | 56 | 1007.7 |
| 20260901143905 | 69 | 225 | 4.0 | 4.0 | 0.00 | 0.00 | 0.00 | 55 | 1008.0 |
| 20260901143605 | 69 | 225 | 4.0 | 4.0 | 0.00 | 0.00 | 0.00 | 56 | 1008.0 |
| 20260901143305 | 70 | 270 | 1.0 | 1.0 | 0.00 | 0.00 | 0.00 | 55 | 1008.0 |
| 20260901143006 | 70 | 225 | 7.0 | 7.0 | 0.00 | 0.00 | 0.00 | 54 | 1007.7 |
| 20260901142709 | 71 | 225 | 2.0 | 2.0 | 0.00 | 0.00 | 0.00 | 54 | 1008.0 |
| 20260901142406 | 71 | 270 | 2.0 | 2.0 | 0.00 | 0.00 | 0.00 | 55 | 1008.0 |
| 20260901142107 | 72 | 180 | 1.0 | 1.0 | 0.00 | 0.00 | 0.00 | 54 | 1007.7 |
| 20260901141805 | 71 | 202 | 2.0 | 2.0 | 0.00 | 0.00 | 0.00 | 54 | 1008.0 |
| 20260901141505 | 72 | 225 | 3.0 | 3.0 | 0.00 | 0.00 | 0.00 | 54 | 1008.0 |
| 20260901141205 | 71 | 315 | 4.0 | 4.0 | 0.00 | 0.00 | 0.00 | 52 | 1007.7 |
| 20260901140908 | 72 | 270 | 3.0 | 3.0 | 0.00 | 0.00 | 0.00 | 52 | 1008.0 |
| 20260901140607 | 72 | 337 | 2.0 | 2.0 | 0.00 | 0.00 | 0.00 | 52 | 1007.7 |
| 20260901140306 | 71 | 202 | 4.0 | 4.0 | 0.00 | 0.00 | 0.00 | 52 | 1008.0 |
| 20260901140006 | 71 | 337 | 1.0 | 1.0 | 0.00 | 0.00 | 0.00 | 51 | 1008.0 |
| 20260901135405 | 73 | 270 | 2.0 | 2.0 | 0.00 | 0.00 | 0.00 | 51 | 1008.2 |
| 20260901135106 | 74 | 202 | 9.0 | 9.0 | 0.00 | 0.00 | 0.00 | 51 | 1008.0 |
| 20260901134807 | 75 | 225 | 4.0 | 5.0 | 0.00 | 0.00 | 0.00 | 52 | 1008.0 |
| 20260901134506 | 75 | 247 | 8.0 | 8.0 | 0.00 | 0.00 | 0.00 | 51 | 1007.7 |
| 20260901134205 | 75 | 247 | 3.0 | 3.0 | 0.00 | 0.00 | 0.00 | 52 | 1008.0 |
| 20260901133906 | 75 | 247 | 2.0 | 2.0 | 0.00 | 0.00 | 0.00 | 53 | 1008.0 |
| 20260901133606 | 74 | 247 | 5.0 | 5.0 | 0.00 | 0.00 | 0.00 | 54 | 1008.0 |
| 20260901133305 | 74 | 157 | 3.0 | 3.0 | 0.00 | 0.00 | 0.00 | 53 | 1008.0 |
| 20260901133006 | 74 | 337 | 5.0 | 5.0 | 0.00 | 0.00 | 0.00 | 53 | 1008.0 |
| 20260901132706 | 73 | 180 | 4.0 | 4.0 | 0.00 | 0.00 | 0.00 | 54 | 1008.0 |
| 20260901132409 | 74 | 225 | 4.0 | 4.0 | 0.00 | 0.00 | 0.00 | 55 | 1008.0 |
| 20260901132105 | 74 | 225 | 3.0 | 3.0 | 0.00 | 0.00 | 0.00 | 54 | 1008.2 |
| 20260901131805 | 75 | 225 | 5.0 | 5.0 | 0.00 | 0.00 | 0.00 | 57 | 1008.2 |
| 20260901131506 | 73 | 225 | 7.0 | 7.0 | 0.00 | 0.00 | 0.00 | 56 | 1008.2 |
| 20260901131206 | 73 | 180 | 1.0 | 1.0 | 0.00 | 0.00 | 0.00 | 55 | 1008.2 |
| 20260901130907 | 73 | 225 | 2.0 | 2.0 | 0.00 | 0.00 | 0.00 | 57 | 1008.0 |
| 20260901130307 | 73 | 337 | 9.0 | 9.0 | 0.00 | 0.00 | 0.00 | 56 | 1008.2 |
| 20260901130007 | 73 | 225 | 5.0 | 5.0 | 0.00 | 0.00 | 0.00 | 56 | 1008.2 |
| 20260901125706 | 73 | 225 | 10.0 | 10.0 | 0.00 | 0.00 | 0.00 | 57 | 1008.2 |
| 20260901125106 | 72 | 180 | 6.0 | 6.0 | 0.00 | 0.00 | 0.00 | 58 | 1008.2 |
| 20260901124805 | 71 | 270 | 2.0 | 2.0 | 0.00 | 0.00 | 0.00 | 57 | 1008.2 |
| 20260901124506 | 71 | 247 | 4.0 | 4.0 | 0.00 | 0.00 | 0.00 | 59 | 1008.2 |
| 20260901124206 | 70 | 270 | 2.0 | 2.0 | 0.00 | 0.00 | 0.00 | 58 | 1008.2 |
| 20260901123906 | 71 | 202 | 4.0 | 4.0 | 0.00 | 0.00 | 0.00 | 58 | 1008.2 |
| 20260901123305 | 72 | 180 | 2.0 | 2.0 | 0.00 | 0.00 | 0.00 | 57 | 1008.2 |
| 20260901123005 | 71 | 270 | 5.0 | 5.0 | 0.00 | 0.00 | 0.00 | 58 | 1008.2 |
| 20260901122706 | 70 | 337 | 4.0 | 4.0 | 0.00 | 0.00 | 0.00 | 58 | 1008.2 |
| 20260901122406 | 70 | 225 | 4.0 | 4.0 | 0.00 | 0.00 | 0.00 | 58 | 1008.2 |
| 20260901122107 | 70 | 180 | 5.0 | 5.0 | 0.00 | 0.00 | 0.00 | 57 | 1008.2 |
| 20260901121809 | 71 | 337 | 6.0 | 6.0 | 0.00 | 0.00 | 0.00 | 55 | 1008.2 |
| 20260901121507 | 72 | 180 | 4.0 | 4.0 | 0.00 | 0.00 | 0.00 | 57 | 1008.2 |
| 20260901121206 | 72 | 202 | 4.0 | 4.0 | 0.00 | 0.00 | 0.00 | 59 | 1008.2 |
| 20260901120907 | 72 | 180 | 1.0 | 2.0 | 0.00 | 0.00 | 0.00 | 58 | 1008.2 |
| 20260901120606 | 71 | 315 | 1.0 | 1.0 | 0.00 | 0.00 | 0.00 | 60 | 1008.2 |
| 20260901120306 | 69 | 337 | 1.0 | 1.0 | 0.00 | 0.00 | 0.00 | 59 | 1008.2 |
| 20260901120009 | 71 | 315 | 5.0 | 5.0 | 0.00 | 0.00 | 0.00 | 59 | 1008.2 |
| 20260901115706 | 70 | 225 | 3.0 | 3.0 | 0.00 | 0.00 | 0.00 | 59 | 1008.2 |
| 20260901115406 | 69 | 247 | 2.0 | 2.0 | 0.00 | 0.00 | 0.00 | 58 | 1008.2 |
| 20260901115106 | 69 | 337 | 3.0 | 3.0 | 0.00 | 0.00 | 0.00 | 61 | 1008.2 |
| 20260901114806 | 68 | 337 | 6.0 | 6.0 | 0.00 | 0.00 | 0.00 | 58 | 1008.5 |
| 20260901114205 | 70 | 225 | 5.0 | 5.0 | 0.00 | 0.00 | 0.00 | 58 | 1008.2 |
| 20260901113906 | 71 | 202 | 8.0 | 8.0 | 0.00 | 0.00 | 0.00 | 62 | 1008.2 |
| 20260901113606 | 69 | 225 | 3.0 | 3.0 | 0.00 | 0.00 | 0.00 | 59 | 1008.5 |
| 20260901113305 | 71 | 202 | 7.0 | 7.0 | 0.00 | 0.00 | 0.00 | 61 | 1008.5 |
| 20260901113006 | 72 | 225 | 5.0 | 5.0 | 0.00 | 0.00 | 0.00 | 62 | 1008.5 |
| 20260901112406 | 71 | 337 | 3.0 | 3.0 | 0.00 | 0.00 | 0.00 | 61 | 1008.5 |
| 20260901112106 | 70 | 337 | 5.0 | 5.0 | 0.00 | 0.00 | 0.00 | 62 | 1008.5 |
| 20260901111806 | 69 | 225 | 4.0 | 4.0 | 0.00 | 0.00 | 0.00 | 60 | 1008.5 |
| 20260901111506 | 69 | 270 | 4.0 | 4.0 | 0.00 | 0.00 | 0.00 | 62 | 1008.5 |
| 20260901111206 | 69 | 292 | 6.0 | 6.0 | 0.00 | 0.00 | 0.00 | 63 | 1008.5 |
| 20260901110909 | 68 | 337 | 5.0 | 5.0 | 0.00 | 0.00 | 0.00 | 63 | 1008.5 |
| 20260901110606 | 68 | 292 | 7.0 | 7.0 | 0.00 | 0.00 | 0.00 | 63 | 1008.7 |
| 20260901110306 | 69 | 270 | 3.0 | 3.0 | 0.00 | 0.00 | 0.00 | 64 | 1008.5 |
| 20260901110005 | 68 | 247 | 3.0 | 3.0 | 0.00 | 0.00 | 0.00 | 64 | 1008.5 |
| 20260901105706 | 67 | 270 | 5.0 | 5.0 | 0.00 | 0.00 | 0.00 | 63 | 1008.5 |
| 20260901105406 | 67 | 315 | 4.0 | 4.0 | 0.00 | 0.00 | 0.00 | 63 | 1008.5 |
| 20260901105105 | 68 | 337 | 4.0 | 4.0 | 0.00 | 0.00 | 0.00 | 63 | 1008.7 |
| 20260901104805 | 69 | 315 | 3.0 | 3.0 | 0.00 | 0.00 | 0.00 | 62 | 1008.5 |
| 20260901104505 | 70 | 315 | 4.0 | 4.0 | 0.00 | 0.00 | 0.00 | 63 | 1008.5 |
| 20260901104207 | 70 | 247 | 3.0 | 3.0 | 0.00 | 0.00 | 0.00 | 65 | 1008.5 |
| 20260901103908 | 69 | 315 | 4.0 | 4.0 | 0.00 | 0.00 | 0.00 | 66 | 1008.7 |
| 20260901103605 | 70 | 225 | 9.0 | 9.0 | 0.00 | 0.00 | 0.00 | 65 | 1008.7 |
| 20260901103306 | 70 | 337 | 7.0 | 7.0 | 0.00 | 0.00 | 0.00 | 66 | 1008.5 |
| 20260901103005 | 69 | 225 | 3.0 | 3.0 | 0.00 | 0.00 | 0.00 | 69 | 1008.5 |
| 20260901102706 | 68 | 292 | 6.0 | 6.0 | 0.00 | 0.00 | 0.00 | 68 | 1008.7 |
| 20260901102406 | 68 | 225 | 5.0 | 5.0 | 0.00 | 0.00 | 0.00 | 68 | 1008.7 |
| 20260901102108 | 69 | 247 | 4.0 | 4.0 | 0.00 | 0.00 | 0.00 | 70 | 1008.7 |
| 20260901101806 | 68 | 270 | 7.0 | 7.0 | 0.00 | 0.00 | 0.00 | 69 | 1008.7 |
| 20260901101505 | 69 | 247 | 2.0 | 2.0 | 0.00 | 0.00 | 0.00 | 74 | 1008.7 |
| 20260901101205 | 67 | 270 | 4.0 | 4.0 | 0.00 | 0.00 | 0.00 | 75 | 1008.7 |
| 20260901100905 | 67 | 202 | 5.0 | 5.0 | 0.00 | 0.00 | 0.00 | 73 | 1008.7 |
| 20260901100305 | 66 | 270 | 4.0 | 4.0 | 0.00 | 0.00 | 0.00 | 75 | 1008.7 |
| 20260901100007 | 65 | 270 | 4.0 | 4.0 | 0.00 | 0.00 | 0.00 | 73 | 1008.7 |
| 20260901095707 | 65 | 270 | 4.0 | 4.0 | 0.00 | 0.00 | 0.00 | 73 | 1008.7 |
| 20260901095406 | 65 | 270 | 3.0 | 3.0 | 0.00 | 0.00 | 0.00 | 73 | 1008.7 |
| 20260901095107 | 65 | 270 | 6.0 | 6.0 | 0.00 | 0.00 | 0.00 | 73 | 1008.7 |
| 20260901094506 | 66 | 270 | 1.0 | 1.0 | 0.00 | 0.00 | 0.00 | 76 | 1008.7 |
| 20260901094205 | 65 | 247 | 4.0 | 4.0 | 0.00 | 0.00 | 0.00 | 75 | 1008.7 |
| 20260901093906 | 65 | 337 | 5.0 | 5.0 | 0.00 | 0.00 | 0.00 | 76 | 1008.7 |
| 20260901093606 | 65 | 337 | 4.0 | 4.0 | 0.00 | 0.00 | 0.00 | 76 | 1008.7 |
| 20260901093308 | 64 | 202 | 4.0 | 4.0 | 0.00 | 0.00 | 0.00 | 77 | 1008.7 |
| 20260901093006 | 64 | 247 | 6.0 | 6.0 | 0.00 | 0.00 | 0.00 | 78 | 1008.7 |
| 20260901092706 | 64 | 270 | 6.0 | 6.0 | 0.00 | 0.00 | 0.00 | 77 | 1008.7 |
| 20260901092405 | 64 | 225 | 4.0 | 4.0 | 0.00 | 0.00 | 0.00 | 78 | 1008.7 |
| 20260901092106 | 64 | 225 | 3.0 | 3.0 | 0.00 | 0.00 | 0.00 | 78 | 1008.7 |
| 20260901091506 | 63 | 225 | 4.0 | 4.0 | 0.00 | 0.00 | 0.00 | 78 | 1008.7 |
| 20260901091206 | 64 | 247 | 2.0 | 2.0 | 0.00 | 0.00 | 0.00 | 78 | 1008.7 |
| 20260901090905 | 63 | 270 | 6.0 | 6.0 | 0.00 | 0.00 | 0.00 | 77 | 1008.7 |
| 20260901090606 | 63 | 270 | 4.0 | 4.0 | 0.00 | 0.00 | 0.00 | 78 | 1008.7 |
| 20260901090305 | 63 | 247 | 6.0 | 6.0 | 0.00 | 0.00 | 0.00 | 77 | 1008.7 |
| 20260901090006 | 64 | 225 | 3.0 | 3.0 | 0.00 | 0.00 | 0.00 | 79 | 1008.7 |
| 20260901085706 | 64 | 270 | 4.0 | 4.0 | 0.00 | 0.00 | 0.00 | 79 | 1008.7 |
| 20260901085406 | 64 | 247 | 3.0 | 3.0 | 0.00 | 0.00 | 0.00 | 79 | 1008.7 |
| 20260901085105 | 63 | 292 | 3.0 | 3.0 | 0.00 | 0.00 | 0.00 | 80 | 1008.7 |
| 20260901084506 | 63 | 270 | 5.0 | 5.0 | 0.00 | 0.00 | 0.00 | 80 | 1008.7 |
| 20260901084206 | 63 | 225 | 3.0 | 3.0 | 0.00 | 0.00 | 0.00 | 81 | 1008.7 |
| 20260901083905 | 63 | 270 | 5.0 | 5.0 | 0.00 | 0.00 | 0.00 | 80 | 1008.7 |
| 20260901083605 | 63 | 337 | 5.0 | 5.0 | 0.00 | 0.00 | 0.00 | 81 | 1008.7 |
| 20260901083305 | 63 | 270 | 2.0 | 2.0 | 0.00 | 0.00 | 0.00 | 82 | 1008.7 |
| 20260901082705 | 62 | 315 | 5.0 | 5.0 | 0.00 | 0.00 | 0.00 | 82 | 1008.7 |
| 20260901082406 | 62 | 270 | 1.0 | 1.0 | 0.00 | 0.00 | 0.00 | 82 | 1008.7 |
| 20260901082106 | 62 | 315 | 5.0 | 5.0 | 0.00 | 0.00 | 0.00 | 82 | 1008.7 |
| 20260901081805 | 61 | 315 | 2.0 | 2.0 | 0.00 | 0.00 | 0.00 | 83 | 1008.7 |
| 20260901081205 | 61 | 315 | 2.0 | 2.0 | 0.00 | 0.00 | 0.00 | 84 | 1008.7 |
| 20260901080906 | 61 | 292 | 1.0 | 1.0 | 0.00 | 0.00 | 0.00 | 84 | 1008.7 |
| 20260901080606 | 62 | 270 | 2.0 | 2.0 | 0.00 | 0.00 | 0.00 | 84 | 1008.7 |
| 20260901080306 | 61 | 270 | 4.0 | 4.0 | 0.00 | 0.00 | 0.00 | 84 | 1008.7 |
| 20260901080006 | 62 | 337 | 2.0 | 2.0 | 0.00 | 0.00 | 0.00 | 85 | 1008.7 |
| 20260901075706 | 61 | 315 | 3.0 | 3.0 | 0.00 | 0.00 | 0.00 | 85 | 1008.7 |
| 20260901075405 | 61 | 292 | 5.0 | 5.0 | 0.00 | 0.00 | 0.00 | 85 | 1008.5 |
| 20260901075106 | 61 | 225 | 2.0 | 2.0 | 0.00 | 0.00 | 0.00 | 85 | 1008.7 |
| 20260901074805 | 60 | 225 | 2.0 | 2.0 | 0.00 | 0.00 | 0.00 | 85 | 1008.5 |
| 20260901074508 | 60 | 247 | 4.0 | 4.0 | 0.00 | 0.00 | 0.00 | 85 | 1008.5 |
| 20260901074206 | 60 | 270 | 4.0 | 4.0 | 0.00 | 0.00 | 0.00 | 86 | 1008.5 |
| 20260901073905 | 60 | 247 | 2.0 | 2.0 | 0.00 | 0.00 | 0.00 | 86 | 1008.5 |
| 20260901073605 | 60 | 337 | 2.0 | 2.0 | 0.00 | 0.00 | 0.00 | 86 | 1008.2 |
| 20260901073306 | 60 | 202 | 2.0 | 2.0 | 0.00 | 0.00 | 0.00 | 87 | 1008.2 |
| 20260901073008 | 60 | 225 | 3.0 | 3.0 | 0.00 | 0.00 | 0.00 | 87 | 1008.2 |
| 20260901072706 | 60 | 247 | 2.0 | 2.0 | 0.00 | 0.00 | 0.00 | 87 | 1008.2 |
| 20260901072407 | 60 | 337 | 2.0 | 2.0 | 0.00 | 0.00 | 0.00 | 87 | 1008.2 |
| 20260901072105 | 60 | 225 | 2.0 | 2.0 | 0.00 | 0.00 | 0.00 | 87 | 1008.2 |
| 20260901071805 | 59 | 225 | 2.0 | 2.0 | 0.00 | 0.00 | 0.00 | 87 | 1008.2 |
| 20260901071205 | 59 | 270 | 1.0 | 2.0 | 0.00 | 0.00 | 0.00 | 88 | 1008.2 |
| 20260901070905 | 59 | 315 | 2.0 | 2.0 | 0.00 | 0.00 | 0.00 | 87 | 1008.2 |
| 20260901070605 | 59 | 270 | 1.0 | 2.0 | 0.00 | 0.00 | 0.00 | 88 | 1008.2 |
| 20260901070306 | 59 | 337 | 1.0 | 2.0 | 0.00 | 0.00 | 0.00 | 88 | 1008.2 |
| 20260901070006 | 59 | 225 | 1.0 | 1.0 | 0.00 | 0.00 | 0.00 | 88 | 1008.2 |
| 20260901065405 | 58 | 270 | 0.0 | 0.0 | 0.00 | 0.00 | 0.00 | 87 | 1008.2 |
| 20260901065106 | 58 | 225 | 1.0 | 1.0 | 0.00 | 0.00 | 0.00 | 87 | 1008.2 |
| 20260901064805 | 58 | 270 | 3.0 | 3.0 | 0.00 | 0.00 | 0.00 | 87 | 1008.2 |
| 20260901064506 | 58 | 225 | 1.0 | 1.0 | 0.00 | 0.00 | 0.00 | 87 | 1008.2 |
| 20260901063906 | 58 | 225 | 2.0 | 2.0 | 0.00 | 0.00 | 0.00 | 88 | 1008.2 |
| 20260901063605 | 57 | 270 | 2.0 | 2.0 | 0.00 | 0.00 | 0.00 | 87 | 1008.2 |
| 20260901063306 | 57 | 270 | 2.0 | 2.0 | 0.00 | 0.00 | 0.00 | 88 | 1008.2 |
| 20260901063006 | 57 | 225 | 1.0 | 1.0 | 0.00 | 0.00 | 0.00 | 87 | 1008.2 |
| 20260901062406 | 57 | 315 | 0.0 | 0.0 | 0.00 | 0.00 | 0.00 | 87 | 1008.2 |
| 20260901062106 | 57 | 202 | 2.0 | 2.0 | 0.00 | 0.00 | 0.00 | 87 | 1008.2 |
| 20260901061805 | 57 | 270 | 1.0 | 1.0 | 0.00 | 0.00 | 0.00 | 87 | 1008.2 |
| 20260901061506 | 57 | 270 | 2.0 | 2.0 | 0.00 | 0.00 | 0.00 | 87 | 1008.2 |
| 20260901061205 | 57 | 270 | 1.0 | 1.0 | 0.00 | 0.00 | 0.00 | 87 | 1008.2 |
| 20260901060909 | 57 | 270 | 2.0 | 2.0 | 0.00 | 0.00 | 0.00 | 87 | 1008.2 |
| 20260901060605 | 57 | 202 | 0.0 | 0.0 | 0.00 | 0.00 | 0.00 | 87 | 1008.2 |
| 20260901060306 | 57 | 337 | 2.0 | 2.0 | 0.00 | 0.00 | 0.00 | 87 | 1008.2 |
| 20260901060006 | 57 | 225 | 1.0 | 1.0 | 0.00 | 0.00 | 0.00 | 87 | 1008.2 |
| 20260901055705 | 57 | 180 | 1.0 | 1.0 | 0.00 | 0.00 | 0.00 | 87 | 1008.2 |
| 20260901055406 | 57 | 225 | 1.0 | 1.0 | 0.00 | 0.00 | 0.00 | 86 | 1008.2 |
| 20260901054806 | 56 | 225 | 1.0 | 1.0 | 0.00 | 0.00 | 0.00 | 86 | 1008.2 |
| 20260901054505 | 57 | 270 | 2.0 | 2.0 | 0.00 | 0.00 | 0.00 | 87 | 1008.2 |
| 20260901054206 | 56 | 337 | 0.0 | 0.0 | 0.00 | 0.00 | 0.00 | 86 | 1008.2 |
| 20260901053905 | 56 | 225 | 2.0 | 2.0 | 0.00 | 0.00 | 0.00 | 86 | 1008.2 |
| 20260901053609 | 56 | 337 | 1.0 | 1.0 | 0.00 | 0.00 | 0.00 | 86 | 1008.0 |
| 20260901053306 | 56 | 202 | 1.0 | 1.0 | 0.00 | 0.00 | 0.00 | 87 | 1008.2 |
| 20260901053005 | 56 | 337 | 1.0 | 1.0 | 0.00 | 0.00 | 0.00 | 87 | 1008.0 |
| 20260901052705 | 56 | 202 | 0.0 | 0.0 | 0.00 | 0.00 | 0.00 | 86 | 1008.0 |
| 20260901052406 | 56 | 337 | 1.0 | 1.0 | 0.00 | 0.00 | 0.00 | 87 | 1008.0 |
| 20260901052106 | 56 | 180 | 0.0 | 0.0 | 0.00 | 0.00 | 0.00 | 87 | 1008.0 |
| 20260901051506 | 56 | 202 | 0.0 | 0.0 | 0.00 | 0.00 | 0.00 | 86 | 1008.0 |
| 20260901051206 | 56 | 180 | 0.0 | 0.0 | 0.00 | 0.00 | 0.00 | 86 | 1007.7 |
| 20260901050905 | 56 | 180 | 0.0 | 0.0 | 0.00 | 0.00 | 0.00 | 86 | 1008.0 |
| 20260901050606 | 56 | 180 | 0.0 | 0.0 | 0.00 | 0.00 | 0.00 | 86 | 1007.7 |
| 20260901050305 | 56 | 180 | 0.0 | 0.0 | 0.00 | 0.00 | 0.00 | 86 | 1007.7 |
| 20260901045706 | 56 | 180 | 0.0 | 0.0 | 0.00 | 0.00 | 0.00 | 86 | 1007.7 |
| 20260901045406 | 56 | 337 | 0.0 | 0.0 | 0.00 | 0.00 | 0.00 | 86 | 1007.7 |
| 20260901045106 | 56 | 112 | 0.0 | 0.0 | 0.00 | 0.00 | 0.00 | 86 | 1007.7 |
| 20260901044806 | 56 | 112 | 0.0 | 0.0 | 0.00 | 0.00 | 0.00 | 86 | 1007.7 |
| 20260901044507 | 56 | 112 | 0.0 | 0.0 | 0.00 | 0.00 | 0.00 | 86 | 1007.7 |
| 20260901044208 | 56 | 337 | 0.0 | 0.0 | 0.00 | 0.00 | 0.00 | 86 | 1007.7 |
| 20260901043906 | 56 | 90 | 0.0 | 0.0 | 0.00 | 0.00 | 0.00 | 86 | 1007.7 |
| 20260901043605 | 56 | 90 | 1.0 | 1.0 | 0.00 | 0.00 | 0.00 | 86 | 1007.7 |
| 20260901043306 | 56 | 112 | 0.0 | 0.0 | 0.00 | 0.00 | 0.00 | 86 | 1007.7 |
| 20260901043005 | 56 | 90 | 0.0 | 0.0 | 0.00 | 0.00 | 0.00 | 86 | 1007.7 |
| 20260901042708 | 56 | 90 | 0.0 | 0.0 | 0.00 | 0.00 | 0.00 | 86 | 1007.7 |
| 20260901042406 | 56 | 45 | 0.0 | 0.0 | 0.00 | 0.00 | 0.00 | 86 | 1007.7 |
| 20260901042106 | 56 | 22 | 0.0 | 0.0 | 0.00 | 0.00 | 0.00 | 85 | 1007.5 |
| 20260901041806 | 56 | 22 | 0.0 | 0.0 | 0.00 | 0.00 | 0.00 | 86 | 1007.5 |
| 20260901041505 | 56 | 22 | 0.0 | 0.0 | 0.00 | 0.00 | 0.00 | 86 | 1007.5 |
| 20260901041206 | 56 | 22 | 0.0 | 0.0 | 0.00 | 0.00 | 0.00 | 86 | 1007.5 |
| 20260901040908 | 56 | 315 | 0.0 | 0.0 | 0.00 | 0.00 | 0.00 | 86 | 1007.7 |
| 20260901040605 | 56 | 225 | 0.0 | 0.0 | 0.00 | 0.00 | 0.00 | 86 | 1007.5 |
| 20260901040305 | 56 | 180 | 0.0 | 0.0 | 0.00 | 0.00 | 0.00 | 86 | 1007.2 |
| 20260901040006 | 56 | 225 | 0.0 | 0.0 | 0.00 | 0.00 | 0.00 | 86 | 1007.5 |
| 20260901035706 | 56 | 337 | 0.0 | 0.0 | 0.00 | 0.00 | 0.00 | 86 | 1007.2 |
| 20260901035106 | 56 | 337 | 0.0 | 0.0 | 0.00 | 0.00 | 0.00 | 85 | 1007.2 |
| 20260901034806 | 56 | 270 | 0.0 | 0.0 | 0.00 | 0.00 | 0.00 | 85 | 1007.2 |
| 20260901034506 | 56 | 337 | 0.0 | 0.0 | 0.00 | 0.00 | 0.00 | 85 | 1007.2 |
| 20260901034206 | 56 | 270 | 0.0 | 0.0 | 0.00 | 0.00 | 0.00 | 85 | 1007.2 |
| 20260901033905 | 56 | 270 | 0.0 | 0.0 | 0.00 | 0.00 | 0.00 | 85 | 1007.2 |
| 20260901033606 | 56 | 270 | 0.0 | 0.0 | 0.00 | 0.00 | 0.00 | 85 | 1007.2 |
| 20260901033305 | 56 | 135 | 0.0 | 0.0 | 0.00 | 0.00 | 0.00 | 85 | 1007.2 |
| 20260901033006 | 56 | 225 | 0.0 | 0.0 | 0.00 | 0.00 | 0.00 | 85 | 1007.2 |
| 20260901032707 | 56 | 225 | 0.0 | 0.0 | 0.00 | 0.00 | 0.00 | 85 | 1007.2 |
| 20260901032106 | 56 | 180 | 0.0 | 0.0 | 0.00 | 0.00 | 0.00 | 85 | 1007.2 |
| 20260901031805 | 56 | 202 | 0.0 | 0.0 | 0.00 | 0.00 | 0.00 | 85 | 1007.0 |
| 20260901031506 | 56 | 247 | 0.0 | 0.0 | 0.00 | 0.00 | 0.00 | 85 | 1007.0 |
| 20260901031206 | 56 | 270 | 0.0 | 0.0 | 0.00 | 0.00 | 0.00 | 85 | 1007.2 |
| 20260901030908 | 56 | 270 | 0.0 | 0.0 | 0.00 | 0.00 | 0.00 | 85 | 1007.0 |
| 20260901030605 | 56 | 337 | 0.0 | 0.0 | 0.00 | 0.00 | 0.00 | 85 | 1007.0 |
| 20260901030305 | 56 | 315 | 0.0 | 0.0 | 0.00 | 0.00 | 0.00 | 85 | 1007.2 |
| 20260901030005 | 56 | 315 | 0.0 | 0.0 | 0.00 | 0.00 | 0.00 | 85 | 1007.0 |
| 20260901025706 | 56 | 270 | 0.0 | 0.0 | 0.00 | 0.00 | 0.00 | 85 | 1007.0 |
| 20260901025407 | 56 | 337 | 1.0 | 1.0 | 0.00 | 0.00 | 0.00 | 85 | 1007.0 |
| 20260901024806 | 56 | 270 | 0.0 | 0.0 | 0.00 | 0.00 | 0.00 | 85 | 1006.7 |
| 20260901024505 | 56 | 292 | 2.0 | 2.0 | 0.00 | 0.00 | 0.00 | 85 | 1007.0 |
| 20260901024206 | 56 | 270 | 1.0 | 2.0 | 0.00 | 0.00 | 0.00 | 85 | 1007.0 |